Probability
0 0 0 0 0 0 0 0 0 0 0 0 0 0 0 0 0 0 0 0 0 0 0 0 0 0 0 0 0 0 0 0 0 0 0 0 0 0 0 0 0 0 0 0
0 0 0 0 0 0 0 0 0 0 0 0 0 0 0 0 0 0 0 0 0 0 0 0 0 0 0 0 0 0 0 0 0 0 0 0 0 0 0 0 0 0 0 0
0 0 0 0 0 0 0 0 0 0 0 0 0 0 0 0 0 0 0 0 0 0 0 0 0 0 0 0 0 0 0 0 0 0 0 0 0 0 0 0 0 0 0 0
0 0 0 0 0 0 0 0 0 0 0 0 0 0 0 0 0 0 0 0 0 0 0 0 0 0 0 0 0 0 0 0 0 0 0 0 0 0 0 0 0 0 0 0
0 0 0 0 0 0 0 0 0 0 0 0 0 0 0 0 0 0 0 0 0 0 0 0 0 0 0 0 0 0 0 0 0 0 0 0 0 0 0 0 0 0 0 0
0 0 0 0 0 0 0 0 0 0 0 0 0 0 0 0 0 0 0 0 0 0 0 0 0 0 0 0 0 0 0 0 0 0 0 0 0 0 0 0 0 0 0 0
0 0 0 0 0 0 0 0 0 0 0 0 0 0 0 0 0 0 0 0 0 0 0 0 0 0 0 0 0 0 0 0 0 0 0 0 0 0 0 0 0 0 0 0
0 0 0 0 0 0 0 0 0 0 0 0 0 0 0 0 0 0 0 0 0 0 0 0 0 0 0 0 0 0 0 0 0 0 0 0 0 0 0 0 0 0 0 0
0 0 0 0 0 0 0 0 0 0 0 0 0 0 0 0 0 0 0 0 0 0 0 0 0 0 0 0 0 0 0 0 0 0 0 0 0 0 0 0 0 0 0 0
0 0 0 0 0 0 0 0 0 0 0 0 0 0 0 0 0 0 0 0 0 0 0 0 0 0 0 0 0 0 0 0 0 0 0 0 0 0 0 0 0 0 0 0
0 0 0 0 0 0 0 0 0 0 0 0 0 0 0 0 0 0 0 0 0 0 0 0 0 0 0 0 0 0 0 0 0 0 0 0 0 0 0 0 0 0 0 0
0 0 0 0 0 0 0 0 0 0 0 0 0 0 0 0 0 0 0 0 0 0 0 0 0 0 0 0 0 0 0 0 0 0 0 0 0 0 0 0 0 0 0 0
0 0 0 0 0 0 0 0 0 0 0 0 0 0 0 0 0 0 0 0 0 0 0 0 0 0 0 0 0 0 0 0 0 0 0 0 0 0 0 0 0 0 0 0
0 0 0 0 0 0 0 0 0 0 0 0 0 0 0 0 0 0 0 0 0 0 0 0 0 0 0 0 0 0 0 0 0 0 0 0 0 0 0 0 0 0 0 0
0 0 0 0 0 0 0 0 0 0 0 0 0 0 0 0 0 0 0 0 0 0 0 0 0 0 0 0 0 0 0 0 0 0 0 0 0 0 0 0 0 0 0 0
0 0 0 0 0 0 0 0 0 0 0 0 0 0 0 0 0 0 0 0 0 0 0 0 0 0 0 0 0 0 0 0 0 0 0 0 0 0 0 0 0 0 0 0
0 0 0 0 0 0 0 0 0 0 0 0 0 0 0 0 0 0 0 0 0 0 0 0 0 0 0 0 0 0 0 0 0 0 0 0 0 0 0 0 0 0 0 0
0 0 0 0 0 0 0 0 0 0 0 0 0 0 0 0 0 0 0 0 0 0 0 0 0 0 0 0 0 0 0 0 0 0 0 0 0 0 0 0 0 0 0 0
0 0 0 0 0 0 0 0 0 0 0 0 0 0 0 0 0 0 0 0 0 0 0 0 0 0 0 0 0 0 0 0 0 0 0 0 0 0 0 0 0 0 0 0
0 0 0 0 0 0 0 0 0 0 0 0 0 0 0 0 0 0 0 0 0 0 0 0 0 0 0 0 0 0 0 0 0 0 0 0 0 0 0 0 0 0 0 0
0 0 0 0 0 0 0 0 0 0 0 0 0 0 0 0 0 0 0 0 0 0 0 0 0 0 0 0 0 0 0 0 0 0 0 0 0 0 0 0 0 0 0 0
0 0 0 0 0 0 0 0 0 0 0 0 0 0 0 0 0 0 0 0 0 0 0 0 0 0 0 0 0 0 0 0 0 0 0 0 0 0 0 0 0 0 0 0
0 0 0 0 0 0 0 0 0 0 0 0 0 0 0 0 0 0 0 0 0 0 0 0 0 0 0 0 0 0 0 0 0 0 0 0 0 0 0 0 0 0 0 0
0 0 0 0 0 0 0 0 0 0 0 0 0 0 0 0 0 0 0 0 0 0 0 0 0 0 0 0 0 0 0 0 0 0 0 0 0 0 0 0 0 0 0 0
0 0 0 0 0 0 0 0 0 0 0 0 0 0 0 0 0 0 0 0 0 0 0 0 0 0 0 0 0 0 0 0 0 0 0 0 0 0 0 0 0 0 0 0
0 0 0 0 0 0 0 0 0 0 0 0 0 0 0 0 0 0 0 0 0 0 0 0 0 0 0 0 0 0 0 0 0 0 0 0 0 0 0 0 0 0 0 0
Height
5700 5709 5718 5733 5746 5755 5760 5766 5770 5774 5775 5780 5784 5787 5789 5791 5794 5797 5799 5801 5802 5802 5802 5802 5801 5801 5801 5800 5800 5800 5800 5799 5797 5795 5792 5790 5787 5784 5782 5779 5777 5774 5771 5768
5696 5705 5720 5732 5740 5746 5753 5761 5766 5769 5772 5776 5780 5783 5785 5787 5790 5793 5795 5796 5797 5797 5796 5796 5796 5796 5796 5796 5796 5795 5795 5793 5791 5788 5785 5783 5780 5777 5775 5772 5770 5767 5764 5760
5693 5706 5717 5726 5734 5742 5750 5758 5762 5765 5767 5772 5776 5780 5782 5784 5786 5789 5790 5791 5791 5791 5791 5792 5792 5792 5792 5792 5791 5790 5789 5787 5785 5782 5779 5776 5773 5770 5768 5765 5762 5759 5755 5751
5691 5703 5714 5723 5731 5740 5748 5754 5756 5759 5763 5768 5772 5776 5779 5780 5782 5784 5786 5786 5786 5786 5787 5787 5788 5788 5787 5786 5785 5784 5782 5780 5778 5775 5772 5769 5766 5763 5760 5757 5754 5750 5747 5742
5688 5700 5710 5720 5731 5738 5745 5747 5751 5755 5759 5764 5767 5770 5777 5776 5778 5779 5781 5781 5781 5781 5782 5783 5783 5783 5782 5780 5778 5777 5775 5773 5771 5768 5765 5762 5759 5756 5753 5750 5746 5742 5738 5733
5688 5698 5708 5719 5727 5734 5738 5743 5747 5750 5754 5762 5765 5766 5773 5772 5774 5775 5776 5776 5776 5776 5776 5777 5778 5777 5775 5773 5771 5769 5768 5766 5763 5760 5758 5755 5752 5748 5745 5741 5737 5732 5728 5723
5682 5694 5704 5714 5720 5727 5733 5739 5743 5747 5751 5758 5760 5762 5768 5768 5769 5770 5771 5770 5770 5770 5771 5771 5771 5770 5768 5765 5764 5762 5760 5758 5755 5753 5750 5747 5743 5740 5736 5732 5727 5723 5717 5711
5680 5690 5700 5709 5717 5724 5730 5736 5741 5745 5748 5752 5755 5759 5764 5764 5764 5764 5765 5764 5764 5764 5765 5765 5764 5763 5760 5758 5757 5754 5752 5750 5747 5745 5742 5738 5734 5730 5726 5721 5716 5711 5705 5698
5681 5692 5700 5708 5715 5721 5726 5731 5736 5739 5742 5747 5751 5756 5759 5758 5758 5758 5758 5758 5758 5758 5759 5759 5758 5756 5754 5752 5749 5747 5744 5742 5739 5736 5733 5729 5725 5720 5715 5709 5703 5697 5690 5682
5681 5690 5698 5705 5711 5716 5722 5726 5730 5733 5737 5741 5747 5750 5753 5753 5752 5752 5752 5751 5752 5753 5753 5752 5751 5749 5747 5744 5742 5740 5737 5734 5731 5727 5723 5719 5713 5708 5703 5697 5690 5682 5674 5666
5678 5687 5695 5701 5706 5712 5718 5722 5726 5730 5733 5737 5741 5747 5747 5746 5746 5746 5746 5746 5746 5747 5747 5746 5744 5742 5739 5737 5734 5732 5729 5726 5722 5718 5713 5708 5702 5696 5690 5683 5675 5667 5658 5649
5676 5684 5690 5697 5703 5708 5713 5717 5722 5726 5729 5732 5736 5742 5741 5741 5740 5740 5741 5741 5742 5741 5741 5739 5737 5735 5732 5729 5727 5724 5721 5717 5712 5707 5702 5696 5690 5683 5676 5668 5660 5651 5642 5632
5674 5680 5685 5691 5698 5702 5706 5712 5717 5721 5724 5726 5730 5737 5734 5734 5735 5736 5737 5737 5736 5735 5734 5732 5729 5727 5724 5722 5719 5716 5712 5707 5702 5696 5690 5683 5676 5669 5661 5652 5644 5635 5625 5615
5672 5677 5683 5689 5695 5701 5704 5709 5713 5716 5719 5722 5726 5729 5728 5728 5730 5732 5732 5732 5730 5729 5727 5724 5722 5719 5716 5714 5710 5706 5701 5695 5689 5683 5676 5669 5661 5653 5645 5636 5627 5618 5607 5596
5669 5674 5679 5685 5690 5695 5700 5704 5707 5710 5714 5716 5720 5721 5722 5723 5725 5726 5726 5725 5724 5722 5719 5717 5714 5712 5709 5705 5700 5695 5690 5683 5677 5670 5662 5654 5645 5637 5628 5619 5609 5599 5587 5574
5668 5673 5678 5683 5687 5691 5694 5698 5701 5704 5707 5710 5713 5716 5716 5718 5719 5719 5718 5718 5716 5714 5712 5710 5707 5704 5700 5695 5689 5684 5677 5670 5663 5655 5647 5638 5630 5621 5612 5602 5590 5578 5566 5551
5668 5673 5677 5680 5683 5686 5690 5694 5697 5701 5703 5706 5708 5712 5712 5712 5712 5712 5711 5710 5708 5707 5705 5702 5698 5694 5689 5684 5678 5671 5664 5656 5648 5639 5631 5623 5614 5604 5594 5582 5570 5557 5544 5530
5666 5669 5673 5677 5680 5683 5690 5691 5694 5696 5699 5701 5703 5705 5706 5705 5705 5704 5703 5702 5701 5699 5696 5693 5688 5683 5678 5671 5665 5657 5649 5641 5633 5624 5616 5606 5597 5586 5574 5562 5549 5535 5522 5507
5664 5668 5671 5675 5677 5681 5686 5688 5691 5693 5695 5696 5697 5699 5699 5698 5697 5697 5696 5694 5692 5690 5686 5682 5677 5671 5665 5658 5651 5643 5635 5627 5618 5609 5599 5589 5579 5568 5555 5541 5527 5513 5500 5487
5663 5666 5670 5672 5675 5678 5683 5685 5685 5687 5688 5691 5691 5692 5692 5691 5691 5690 5688 5686 5683 5680 5675 5671 5665 5659 5652 5645 5637 5630 5621 5612 5603 5593 5582 5572 5561 5548 5535 5520 5506 5492 5480 5468
5661 5664 5666 5669 5670 5673 5677 5678 5679 5682 5684 5684 5684 5684 5684 5684 5683 5682 5680 5677 5673 5669 5664 5659 5653 5646 5639 5632 5624 5616 5607 5597 5587 5576 5565 5554 5541 5528 5514 5500 5486 5474 5462 5452
5658 5660 5663 5665 5666 5670 5671 5672 5674 5675 5676 5676 5677 5677 5677 5676 5675 5673 5671 5667 5663 5658 5652 5646 5639 5632 5625 5618 5610 5601 5592 5582 5571 5560 5548 5535 5521 5507 5494 5481 5469 5456 5444 5433
5655 5658 5660 5662 5664 5665 5666 5666 5667 5668 5669 5669 5670 5670 5669 5668 5666 5663 5659 5655 5650 5644 5638 5632 5625 5617 5610 5602 5593 5585 5576 5565 5554 5542 5529 5516 5503 5489 5476 5463 5452 5441 5428 5415
5651 5653 5655 5656 5657 5658 5659 5660 5661 5661 5662 5662 5662 5661 5660 5658 5655 5651 5647 5642 5637 5630 5623 5616 5609 5601 5593 5585 5577 5569 5560 5548 5537 5525 5512 5499 5487 5474 5461 5448 5436 5424 5412 5400
5646 5648 5649 5650 5651 5652 5653 5654 5654 5654 5654 5654 5653 5651 5649 5646 5642 5638 5634 5628 5622 5615 5608 5600 5593 5585 5577 5569 5560 5552 5542 5531 5520 5508 5495 5482 5469 5458 5447 5436 5423 5411 5400 5384
5639 5641 5642 5644 5645 5645 5646 5646 5646 5646 5645 5644 5642 5639 5636 5633 5629 5625 5620 5614 5607 5599 5592 5585 5578 5570 5562 5553 5544 5535 5525 5514 5502 5491 5478 5465 5454 5443 5432 5422 5415 5402 5388 5375
Wind_Speed
60 58 57 50 41 35 36 36 33 31 30 26 23 20 19 17 17 19 20 19 20 22 24 25 25 24 24 24 24 24 26 27 29 31 33 34 35 35 35 34 33 32 33 34
60 58 50 44 40 39 37 35 32 31 30 26 23 20 19 18 18 19 20 20 20 21 22 22 21 21 21 22 23 25 28 31 33 35 35 35 34 33 33 33 33 34 36 37
59 54 47 45 42 39 36 32 31 30 28 25 23 21 20 20 20 20 19 19 19 19 19 20 21 21 21 22 25 28 31 33 34 34 33 31 31 32 33 34 35 37 39 41
54 50 46 43 40 36 32 31 30 29 28 25 23 21 20 21 21 21 20 19 18 17 18 20 21 22 23 25 28 30 32 33 32 31 31 31 32 34 35 37 39 41 43 45
55 50 46 40 34 31 29 30 29 29 28 25 22 21 18 21 22 22 20 19 19 19 19 21 23 25 27 29 31 32 32 31 31 32 32 33 35 36 38 40 42 43 44 46
51 47 42 36 32 30 29 29 28 28 28 24 20 22 18 21 22 21 20 20 21 21 22 24 27 29 31 32 33 32 32 32 33 34 35 37 38 39 40 41 42 44 46 49
51 47 42 38 35 33 32 29 27 25 25 22 21 22 17 20 21 21 21 22 23 24 25 27 29 31 33 34 33 33 33 34 35 37 38 39 40 40 41 43 45 48 51 55
50 48 44 41 37 33 30 27 24 23 24 23 23 20 17 19 21 22 23 24 26 27 28 29 30 32 33 34 34 34 36 37 39 39 40 40 40 41 44 47 50 54 58 61
47 44 42 40 36 33 31 27 25 25 25 24 22 19 17 19 21 23 24 26 27 28 28 27 28 31 32 33 35 37 38 39 40 40 40 41 42 46 49 53 57 61 65 69
44 43 41 39 37 36 33 30 28 27 25 24 22 20 19 20 22 24 25 26 27 26 26 26 28 31 33 35 37 38 38 39 39 40 41 44 47 51 55 59 63 66 70 74
41 40 40 40 39 37 34 32 30 28 26 24 22 20 19 20 22 24 24 25 25 25 26 27 30 32 34 36 36 36 37 38 39 41 44 47 52 56 60 64 68 71 74 77
37 37 37 38 38 37 35 33 31 30 28 26 24 21 20 21 22 23 25 25 26 27 28 29 31 33 34 35 35 36 37 39 42 45 49 53 57 62 66 69 72 74 77 79
33 34 35 37 37 37 36 33 31 30 29 27 24 21 21 23 24 24 24 25 27 29 29 30 32 33 34 35 36 37 40 44 48 52 56 60 63 67 69 71 73 75 78 81
30 31 32 31 28 28 29 29 28 28 27 25 22 20 23 25 25 24 25 27 28 29 30 32 33 34 35 36 39 43 47 51 55 59 62 65 68 70 72 73 75 78 81 86
28 29 29 30 29 29 28 27 28 28 26 26 24 25 26 27 25 25 26 27 28 30 31 33 34 35 38 42 46 50 54 57 60 63 66 69 70 72 73 76 79 83 87 92
26 26 27 27 27 27 28 28 29 29 28 26 26 25 27 26 26 26 27 28 30 31 32 34 36 40 43 47 51 55 58 60 63 65 68 70 72 74 77 80 84 88 92 95
24 25 26 26 26 27 28 27 27 27 26 26 26 25 25 26 26 28 29 30 31 33 35 37 41 45 48 52 55 58 60 62 64 67 70 72 74 77 81 85 89 92 94 94
23 23 23 23 25 27 24 24 25 26 26 26 25 24 24 25 27 29 30 32 34 36 39 42 46 49 52 55 57 59 62 64 67 70 73 75 78 81 85 89 93 94 93 90
24 23 22 22 23 24 24 24 24 25 25 25 25 25 25 27 30 31 33 35 37 40 43 46 49 51 54 57 59 62 65 67 70 73 75 78 81 85 89 92 92 91 88 83
24 24 24 24 25 26 25 26 27 28 28 26 26 27 28 30 32 34 35 38 41 44 46 49 51 54 56 59 62 65 68 70 72 75 78 81 85 88 90 91 89 86 82 78
20 21 23 25 26 28 27 27 27 28 27 26 27 29 30 32 33 35 38 41 44 47 49 52 55 58 60 63 66 68 70 71 74 76 80 84 87 89 89 87 84 81 77 76
17 18 20 22 24 24 23 24 25 26 26 26 27 29 30 32 35 38 41 44 47 50 53 56 59 61 64 66 67 68 70 72 75 79 83 86 88 88 86 82 79 77 76 77
15 15 17 19 21 21 22 23 24 25 26 27 28 30 32 35 38 41 44 47 51 54 58 60 62 64 65 66 67 69 71 73 77 81 84 86 86 84 81 78 76 75 76 80
14 15 17 19 20 21 23 24 26 27 28 30 32 34 36 39 42 45 49 52 56 59 61 62 63 64 64 66 67 69 72 76 80 83 85 85 83 80 76 75 75 76 78 81
18 19 20 21 22 24 25 27 29 30 32 33 36 38 41 44 47 50 53 57 60 62 62 62 62 62 63 66 68 71 75 79 82 84 85 83 80 77 74 73 73 75 78 82
25 26 25 25 25 27 28 30 31 33 35 37 40 43 46 49 52 55 58 60 61 61 60 60 60 61 64 67 70 74 78 82 83 84 82 79 77 74 73 72 71 73 77 80
Wind_Direction
205 210 213 215 218 219 217 217 217 223 231 231 229 231 238 238 234 238 244 252 263 270 274 274 273 271 270 268 266 268 274 280 286 291 293 293 293 292 292 292 292 293 294 294
205 210 211 212 214 216 216 217 220 226 233 232 228 228 235 235 232 238 248 259 270 273 273 272 270 268 266 263 263 268 275 282 288 291 292 291 291 290 290 290 291 292 292 293
206 208 209 210 212 215 215 217 222 228 232 231 228 223 229 235 238 244 255 264 269 270 271 272 271 268 267 267 270 275 281 287 290 291 290 289 288 288 289 289 290 290 291 292
205 206 208 210 212 214 213 217 224 228 230 230 230 223 228 234 241 248 256 261 264 267 269 271 271 270 271 274 278 283 287 289 290 288 287 286 287 287 289 290 291 292 293 295
202 203 206 209 210 210 210 218 223 227 229 228 231 231 219 235 240 246 253 259 261 264 267 270 272 274 277 280 284 287 288 288 287 286 285 285 286 288 289 291 292 294 296 297
201 202 205 205 205 205 209 219 224 227 229 228 233 239 224 238 242 249 255 259 262 265 269 273 276 279 281 283 285 287 287 286 285 285 285 287 289 291 293 295 297 298 300 301
198 199 201 200 201 203 210 218 224 228 232 231 233 243 239 245 247 253 258 263 267 270 274 277 280 282 283 284 285 286 285 285 285 286 288 290 293 295 296 298 299 300 302 303
198 197 198 199 202 206 212 219 226 234 237 235 235 242 248 253 256 259 262 265 268 272 276 280 282 282 282 283 284 284 284 284 286 289 292 294 296 298 299 301 302 303 304 304
200 199 200 202 205 209 216 223 231 237 239 240 239 242 252 259 260 262 264 265 268 273 277 279 280 280 281 282 283 283 285 288 290 293 297 299 300 302 303 304 305 305 305 305
201 203 204 207 210 215 220 225 231 237 240 242 244 248 254 257 259 260 263 265 269 271 274 275 275 277 280 282 283 285 289 292 295 297 299 301 302 304 305 305 306 306 306 306
203 206 208 212 217 222 226 230 235 238 242 245 249 252 255 256 255 256 257 261 265 268 270 273 277 280 281 282 285 288 291 294 296 299 301 302 304 305 306 307 307 307 307 307
206 208 211 216 221 225 228 232 234 237 242 247 251 250 251 251 250 251 255 260 266 270 274 278 280 280 281 283 286 290 294 297 299 301 303 304 306 307 308 308 309 309 308 307
206 210 212 216 220 223 226 228 231 235 240 244 249 251 247 246 247 250 256 263 269 275 279 280 279 281 284 287 292 296 299 301 302 304 306 307 308 309 310 309 309 307 307 306
203 209 213 218 222 225 226 227 232 237 241 247 248 246 245 246 249 254 260 267 273 277 278 279 281 285 290 294 298 301 302 304 306 307 308 309 309 310 309 308 307 307 307 308
205 209 211 212 215 217 221 224 230 236 241 243 239 240 245 251 257 262 267 271 274 276 278 281 287 293 297 300 302 303 305 306 308 308 309 309 309 308 308 308 308 309 310 310
206 209 212 215 219 221 223 224 227 232 236 238 239 243 251 258 265 269 272 273 275 278 283 289 295 298 301 302 304 305 306 307 308 308 308 308 308 308 309 310 310 311 312 313
213 218 218 219 220 222 224 225 229 233 237 241 244 249 257 265 270 271 271 273 278 284 290 295 298 300 302 303 304 305 306 307 307 307 308 309 309 310 311 312 312 313 314 315
203 206 211 215 220 225 225 229 234 238 241 245 249 254 260 264 266 268 272 277 283 288 293 296 298 300 301 302 304 305 305 306 307 308 309 310 311 312 313 313 314 315 316 316
200 206 213 220 227 230 230 233 238 242 244 248 253 256 259 263 267 271 276 281 286 291 294 296 298 300 301 303 303 304 306 307 308 310 310 311 312 313 314 315 315 316 317 317
209 214 221 229 236 242 241 243 245 248 249 252 255 257 260 263 268 274 279 284 288 292 295 297 299 300 301 302 303 305 306 308 309 310 311 312 314 315 315 316 317 317 317 316
214 220 226 232 239 244 245 245 247 250 254 254 256 259 262 266 271 277 282 286 290 293 296 298 299 300 301 302 303 304 306 308 309 311 312 314 315 317 317 318 317 316 315 315
218 226 232 237 241 245 248 250 250 253 255 256 257 261 265 271 276 280 285 289 293 295 297 298 299 301 301 302 303 305 307 309 311 312 314 316 318 318 318 318 317 316 316 317
233 241 246 247 249 249 249 251 251 253 256 258 262 266 271 276 281 285 289 292 295 297 298 300 301 302 302 303 305 307 310 311 313 315 317 319 319 319 318 317 316 316 317 319
257 261 259 256 254 251 250 251 253 256 260 264 269 273 277 281 285 288 292 295 297 299 300 301 302 302 304 305 307 309 311 313 315 318 319 319 319 319 317 317 317 318 319 320
272 273 270 265 260 256 255 255 258 262 266 270 274 278 281 284 288 291 295 297 299 300 301 302 302 303 305 307 309 312 314 315 317 319 319 319 319 318 317 317 318 319 320 322
274 275 275 271 264 261 260 260 263 267 271 275 279 282 284 287 291 294 297 299 300 301 301 302 303 305 307 309 311 313 315 317 318 319 319 319 318 317 317 317 317 319 321 323